Hourly Weather Roundup
Issued by NWS Central Illinois

Home | Current Version | Previous Version | Text Only | Print | Product List | Glossary On
Versions: 1 2 3 4 5 6 7 8 9 10 11 12 13 14 15 16 17 18 19 20 21 22 23 24 25 26 27 28 29 30 31 32 33 34 35 36 37 38 39 40 41 42 43 44 45 46 47 48 49 50
000
NZUS43 KILX 282310
HWRILX

AREA WEATHER ROUNDUP
NATIONAL WEATHER SERVICE, LINCOLN IL
600 PM CDT TUE JUL 28 2015


CITY           SKY/WX    TMP DP  RH WIND       PRES   REMARKS
BLOOMINGTON    CLOUDY    77  73  87 SW5       29.94R
CHAMPAIGN      CLOUDY    77  74  90 SW3       29.92F
DANVILLE       MOSUNNY   84  77  78 S3        29.87F HAZE    HX  94
DECATUR        CLOUDY    77  72  84 S5        29.93F
EFFINGHAM      PTSUNNY   78  72  81 SE6       29.93F HX  81
FLORA          SUNNY     92  75  59 NE5       29.93R HX 103
GALESBURG      PTSUNNY   87  80  81 CALM      29.90S HX 103
JACKSONVILLE   MOSUNNY   93  81  67 CALM      29.90S HX 114
LACON          CLOUDY    79  72  79 CALM      29.91R HX  82
LAWRENCEVILLE  SUNNY     92  77  61 CALM      29.91F HX 105
LITCHFIELD     MOSUNNY   91  79  68 SE5       29.91F HX 106
$$


CITY           SKY/WX    TMP DP  RH WIND       PRES   REMARKS
LINCOLN        PTSUNNY   85  73  65 SE6       29.90F HX  92
MACOMB         MOSUNNY   91  78  67 S10       29.90S HX 106
MATTOON        CLOUDY    76  71  85 CALM      29.92F
MT CARMEL AP   SUNNY     93  72  49 NW5       29.92S HX 100
OLNEY-NOBLE AP SUNNY     88  79  74 CALM      29.93S HX 102
PARIS          PTSUNNY   85  80  84 E5        29.91F HX  98
PEORIA         PTSUNNY   85  74  69 S7        29.90F HX  92
PONTIAC        CLOUDY    82  75  78 CALM      29.93R HX  89
RANTOUL        CLOUDY    82  75  81 SW5       29.92S HX  88
ROBINSON       SUNNY     89  76  65 W3        29.90F HX 100
SPRINGFIELD    MOSUNNY   88  77  69 E12       29.90F HX 100
TAYLORVILLE    MOSUNNY   82  73  74 E8        29.92F HX  88
$$

...REGIONAL REPORTS...


CITY           SKY/WX    TMP DP  RH WIND       PRES   REMARKS
CHICAGO O`HARE PTSUNNY   88  69  53 S8        29.89R HX  92
KANKAKEE       CLOUDY    87  75  67 S6        29.92R HX  97
MOLINE         CLOUDY    85  77  77 MISG      29.89R HX  95
MOUNT STERLING NOT AVBL
MOUNT VERNON   PTSUNNY   84  73  70 SE6       29.93S HX  91
PITTSFIELD     MOSUNNY   91  80  69 S3        29.91F HX 108
QUINCY         SUNNY     92  78  63 S7        29.89F HX 107
ROCKFORD       CLOUDY    85  74  69 SW9       29.93R HX  92
$$


CITY           SKY/WX    TMP DP  RH WIND       PRES   REMARKS
BURLINGTON     MOSUNNY   91  80  70 CALM      29.88S HX 109
CEDAR RAPIDS   TSTM      73  72  96 S10       29.86F
DES MOINES     TSTM      76  72  87 SE14      29.87R
KIRKSVILLE     MOSUNNY   91  75  59 S10       29.89F HX 101
OTTUMWA        CLOUDY    87  82  85 E9        29.88R HX 106
ST LOUIS       PTSUNNY   93  75  55 SE9       29.91F HX 104
$$


CITY           SKY/WX    TMP DP  RH WIND       PRES   REMARKS
TERRE HAUTE    MOSUNNY   90  74  59 SE5       29.90F HX  99
EVANSVILLE     SUNNY     90  77  65 NW3       29.93R HX 103
INDIANAPOLIS   PTSUNNY   87  72  60 SE12      29.91F HX  93
LAFAYETTE      MOSUNNY   85  74  69 SE5       29.90F HX  92
MADISON        PTSUNNY   85  71  63 SW8       29.91R HX  90
MILWAUKEE      CLOUDY    82  67  60 S13       29.91F HX  84
$$




USA.gov is the U.S. government's official web portal to all federal, state and local government web resources and services.